This is the latest recevied weather packets stored in our database for station/object WB0VGI-1. If no packets are shown the sender has not sent any weather packets the latest 10 day(s).
| Time | Temp. | Humidity | Pressure | Rain* | Wind** | Luminosity | Snow |
|---|---|---|---|---|---|---|---|
| 1777805225 | 7.78° C | 76% | 1008.8 hPa | 0 mm | - | - | - |
| 1777804025 | 8.33° C | 75% | 1008.7 hPa | 0 mm | - | - | - |
| 1777802825 | 7.78° C | 75% | 1009 hPa | 0 mm | - | - | - |
| 1777801625 | 8.33° C | 76% | 1009 hPa | 0 mm | - | - | - |
| 1777800425 | 8.33° C | 79% | 1009 hPa | 0 mm | - | - | - |
| 1777799225 | 8.89° C | 73% | 1009 hPa | 0 mm | - | - | - |
| 1777798025 | 9.44° C | 77% | 1009.2 hPa | 0 mm | - | - | - |
| 1777796825 | 10° C | 69% | 1009.2 hPa | 0 mm | - | - | - |
| 1777795625 | 10° C | 72% | 1009.4 hPa | 0 mm | - | - | - |
| 1777794425 | 10.56° C | 69% | 1009.3 hPa | 0 mm | - | - | - |
| 1777793225 | 10.56° C | 67% | 1009.6 hPa | 0 mm | - | - | - |
| 1777792026 | 11.67° C | 65% | 1009.7 hPa | 0 mm | - | - | - |
| 1777790825 | 12.22° C | 57% | 1009.5 hPa | 0 mm | - | - | - |
| 1777789625 | 12.78° C | 57% | 1009.7 hPa | 0 mm | - | - | - |
| 1777788425 | 12.78° C | 56% | 1009.9 hPa | 0 mm | - | - | - |
| 1777787225 | 13.33° C | 55% | 1010.2 hPa | 0 mm | - | - | - |
| 1777786025 | 13.89° C | 54% | 1010.1 hPa | 0 mm | - | - | - |
| 1777784825 | 13.89° C | 53% | 1010.4 hPa | 0 mm | - | - | - |
| 1777783625 | 14.44° C | 52% | 1010.8 hPa | 0 mm | - | - | - |
| 1777782425 | 14.44° C | 52% | 1011.1 hPa | 0 mm | - | - | - |
| 1777781225 | 14.44° C | 50% | 1011.4 hPa | 0 mm | - | - | - |
| 1777780025 | 15° C | 50% | 1011.6 hPa | 0 mm | - | - | - |
| 1777778825 | 15° C | 50% | 1012 hPa | 0 mm | - | - | - |
| 1777777625 | 15.56° C | 48% | 1012.4 hPa | 0 mm | - | - | - |
| 1777776425 | 15.56° C | 47% | 1012.8 hPa | 0 mm | - | - | - |
* Rain latest hour (hover to see other rain measurements)
** Current wind speed in m/s (hover to see current wind gust speed)